map of UES home
UES - Airport
Location
City:  Waukesha, Wisconsin, United States
Name:Waukesha County Airport
ICAO:KUES
IATA:UES
FAA LID:UES

Details
Type:Airport (Airfield)
Use:Public/Civil
Latitude:4302'28"N (43.041028)
Longitude:8814'13"W (-88.237055)
Datum:WGS 1984
Elevation:911 ft (278 m)
Variation:3.67W (WMM2015 magnetic declination)
-0.06 annual change
Runways:2
Longest:5849 × 100 ft (1783 × 30.5 m), paved

Time
Time Zone:UTC-6 (DST-5)
Local Time:

Weather
METAR:KUES 241445Z 00000KT 10SM SKC 21/14 A2999
TAF:KUES 241120Z 2412/2512 34005KT P6SM SCT150
FM241400 36006KT P6SM FEW030 SCT150
FM241900 04007KT P6SM FEW040 SCT250
FM242200 06009KT P6SM FEW250
FM250300 VRB04KT P6SM FEW250

Related Locations
Nearby:
Farthest:YAUG: 11046 mi / 17777 km
Augusta [Augusta Airport], WA, AU

Find:

   beyond  
but within

Other Information
Maps:
NOTAMs:
Links:
Sources:

  
  • flag of United States
  • flag of Wisconsin
  

Airport Diagram

Airport diagram for UES

Airport diagram PDF

Sectional Chart

Flight Planning
at skyvector.com

Satellite Image

Google Maps Satellite view

 

Copyright © 2004-2018 Karl L. Swartz. All rights reserved.
The Great Circle Mapper name and logo are trademarks of the Great Circle Mapper.
All other trademarks mentioned herein belong to their respective owners.
Please see credits for attibutions and further copyright information.

  Follow gcmap on Facebook Follow gcmap on Twitter Follow gcmap on Google+ GCmap on LinkedIn

hCard Microformat

Geo Microformat